Вернуться в каталог

SL-14 DEB

АктивенPO
NORAD 19139·DEBRIS·🇷🇺 Russia

Запущен Oct 26, 1978 с Plesetsk Cosmodrome

Loading…

Ближайшие Пролёты (ближайшие 24 часа)

TLE

СвежийSource: Space-Track

Эпоха: Sep 14, 2026, 07:30 UTC

1 19139U 78100M   26257.31274610  .00000117  00000-0  18826-2 0  9991
2 19139  82.1485 345.3195 0151449 172.1489 299.2763 11.70455793637555

Отслеживайте SL-14 DEB в реальном времени с AllMySat

Download on the App Store